Location: Wells
(51.2093°N, 2.6446°W)
Time: 18:01:45
(UTC+00:00)

Gurwin Techsat 1B - Visible Passes

Search period start: 07 March 2026 00:00
Search period end: 17 March 2026 00:00
Orbit: 809 x 812 km, 99.0° (Epoch: 7 March)

Date Brightness Start Highest point End Pass type
(mag) Time Alt. Az. Time Alt. Az. Time Alt. Az.
7 Mar 11.4 03:56:30 10° NE 03:59:34 15° E 04:02:37 10° ESE visible
7 Mar 8.7 05:34:51 10° NNE 05:40:12 88° ESE 05:45:30 10° SSW visible
8 Mar 9.3 05:11:19 10° NNE 05:16:34 59° ESE 05:21:47 10° S visible
9 Mar 10.1 04:47:54 10° NNE 04:52:53 38° E 04:57:48 10° SSE visible
10 Mar 10.8 04:24:42 10° NE 04:29:05 26° E 04:33:27 10° SSE visible
11 Mar 11.4 04:01:50 10° NE 04:05:13 17° E 04:08:34 10° SE visible
11 Mar 8.6 05:40:25 10° NNE 05:45:46 85° WNW 05:51:05 10° SSW visible
12 Mar 11.7 03:40:15 10° ENE 03:41:15 10° E 03:42:14 10° E visible
12 Mar 9.1 05:16:52 10° NNE 05:22:10 64° ESE 05:27:25 10° S visible
13 Mar 9.9 04:53:26 10° NNE 04:58:28 42° E 05:03:28 10° S visible
14 Mar 10.7 04:30:11 10° NE 04:34:42 28° E 04:39:12 10° SSE visible
15 Mar 11.3 04:07:12 10° NE 04:10:51 18° E 04:14:28 10° SE visible
15 Mar 8.6 05:46:00 10° NNE 05:51:20 79° WNW 05:56:37 10° SSW visible
16 Mar 11.6 03:45:03 10° ENE 03:46:54 12° E 03:48:43 10° ESE visible
16 Mar 9.0 05:22:25 10° NNE 05:27:44 70° ESE 05:33:01 10° S visible
